Time,TemperatureF,DewpointF,PressureIn,WindDirection,WindDirectionDegrees,WindSpeedMPH,WindSpeedGustMPH,Humidity,HourlyPrecipIn,Conditions,Clouds,dailyrainin,SoftwareType,DateUTC
2013-07-19 00:01:00,81.0,75.3,29.84,SSW,203,5.0,5.0,83,0.00,,CLR,0.00,VWS V14.01,2013-07-19 05:01:00,
2013-07-19 00:06:00,80.8,75.2,29.84,SSW,200,5.0,6.0,83,0.00,,CLR,0.00,VWS V14.01,2013-07-19 05:06:00,
2013-07-19 00:11:00,80.7,75.1,29.84,SSW,205,4.0,6.0,83,0.00,,CLR,0.00,VWS V14.01,2013-07-19 05:11:00,
2013-07-19 00:16:00,80.6,75.0,29.84,SW,214,3.0,5.0,83,0.00,,CLR,0.00,VWS V14.01,2013-07-19 05:16:00,
2013-07-19 00:21:00,80.5,74.9,29.84,SW,215,4.0,5.0,83,0.00,,CLR,0.00,VWS V14.01,2013-07-19 05:21:00,
2013-07-19 00:26:00,80.3,75.0,29.84,SW,225,6.0,6.0,84,0.00,,CLR,0.00,VWS V14.01,2013-07-19 05:26:00,
2013-07-19 00:31:00,80.2,74.9,29.84,SSW,202,4.0,4.0,84,0.00,,CLR,0.00,VWS V14.01,2013-07-19 05:31:00,
2013-07-19 00:36:00,80.1,74.8,29.83,SSW,194,2.0,5.0,84,0.00,,CLR,0.00,VWS V14.01,2013-07-19 05:36:00,
2013-07-19 00:40:00,80.1,74.8,29.83,SSW,201,4.0,6.0,84,0.00,,CLR,0.00,VWS V14.01,2013-07-19 05:40:00,
2013-07-19 00:45:00,80.0,74.7,29.83,SSW,207,6.0,6.0,84,0.00,,CLR,0.00,VWS V14.01,2013-07-19 05:45:00,
2013-07-19 00:50:00,79.8,74.5,29.83,SSW,210,5.0,6.0,84,0.00,,CLR,0.00,VWS V14.01,2013-07-19 05:50:00,
2013-07-19 00:55:00,79.7,74.4,29.83,SSW,200,4.0,5.0,84,0.00,,CLR,0.00,VWS V14.01,2013-07-19 05:55:00,
2013-07-19 01:00:00,79.6,74.7,29.83,SSW,195,5.0,7.0,85,0.00,,CLR,0.00,VWS V14.01,2013-07-19 06:00:00,
2013-07-19 01:05:00,79.5,74.6,29.83,SW,220,5.0,6.0,85,0.00,,CLR,0.00,VWS V14.01,2013-07-19 06:05:00,
2013-07-19 01:10:00,79.4,74.5,29.83,SSW,199,5.0,6.0,85,0.00,,CLR,0.00,VWS V14.01,2013-07-19 06:10:00,
2013-07-19 01:15:00,79.3,74.4,29.82,SSW,202,2.0,5.0,85,0.00,,CLR,0.00,VWS V14.01,2013-07-19 06:15:00,
2013-07-19 01:20:00,79.1,74.2,29.82,SW,223,5.0,6.0,85,0.00,,CLR,0.00,VWS V14.01,2013-07-19 06:20:00,
2013-07-19 01:25:00,79.0,74.1,29.82,SSW,195,5.0,6.0,85,0.00,,CLR,0.00,VWS V14.01,2013-07-19 06:25:00,
2013-07-19 01:30:00,79.0,74.5,29.82,SSW,212,3.0,6.0,86,0.00,,CLR,0.00,VWS V14.01,2013-07-19 06:30:00,
2013-07-19 01:35:00,79.0,74.1,29.82,SSW,209,3.0,6.0,85,0.00,,CLR,0.00,VWS V14.01,2013-07-19 06:35:00,
2013-07-19 01:40:00,78.9,74.0,29.82,SSW,201,2.0,4.0,85,0.00,,CLR,0.00,VWS V14.01,2013-07-19 06:40:00,
2013-07-19 01:45:00,78.8,73.9,29.82,SSW,204,4.0,5.0,85,0.00,,CLR,0.00,VWS V14.01,2013-07-19 06:45:00,
2013-07-19 01:50:00,78.8,73.9,29.82,SW,215,6.0,7.0,85,0.00,,CLR,0.00,VWS V14.01,2013-07-19 06:50:00,
2013-07-19 01:55:00,78.9,74.0,29.82,South,188,4.0,5.0,85,0.00,,CLR,0.00,VWS V14.01,2013-07-19 06:55:00,
2013-07-19 02:00:00,78.8,73.9,29.82,SSW,198,2.0,5.0,85,0.00,,CLR,0.00,VWS V14.01,2013-07-19 07:00:00,
2013-07-19 02:05:00,78.6,73.7,29.82,SSW,205,4.0,6.0,85,0.00,,CLR,0.00,VWS V14.01,2013-07-19 07:05:00,
2013-07-19 02:10:00,78.5,74.0,29.82,SW,224,2.0,3.0,86,0.00,,CLR,0.00,VWS V14.01,2013-07-19 07:10:00,
2013-07-19 02:15:00,78.4,73.9,29.82,SSW,210,6.0,8.0,86,0.00,,CLR,0.00,VWS V14.01,2013-07-19 07:15:00,
2013-07-19 02:20:00,78.3,73.8,29.82,SSW,206,5.0,5.0,86,0.00,,CLR,0.00,VWS V14.01,2013-07-19 07:20:00,
2013-07-19 02:25:00,78.1,73.6,29.81,SSW,205,6.0,7.0,86,0.00,,CLR,0.00,VWS V14.01,2013-07-19 07:25:00,
2013-07-19 02:30:00,78.0,73.8,29.81,SW,218,7.0,7.0,87,0.00,,CLR,0.00,VWS V14.01,2013-07-19 07:30:00,
2013-07-19 02:35:00,78.0,73.8,29.81,SSW,201,6.0,7.0,87,0.00,,CLR,0.00,VWS V14.01,2013-07-19 07:35:00,
2013-07-19 02:40:00,77.9,73.7,29.81,SW,225,6.0,6.0,87,0.00,,CLR,0.00,VWS V14.01,2013-07-19 07:40:00,
2013-07-19 02:45:00,77.8,73.6,29.81,SSW,203,5.0,6.0,87,0.00,,CLR,0.00,VWS V14.01,2013-07-19 07:45:00,
2013-07-19 02:50:00,77.8,73.6,29.81,SW,218,3.0,4.0,87,0.00,,CLR,0.00,VWS V14.01,2013-07-19 07:50:00,
2013-07-19 02:55:00,77.6,73.4,29.81,SW,223,4.0,5.0,87,0.00,,CLR,0.00,VWS V14.01,2013-07-19 07:55:00,
2013-07-19 03:00:00,77.5,73.3,29.81,SSW,206,1.0,1.0,87,0.00,,CLR,0.00,VWS V14.01,2013-07-19 08:00:00,
2013-07-19 03:05:00,77.3,73.5,29.81,SW,228,4.0,5.0,88,0.00,,CLR,0.00,VWS V14.01,2013-07-19 08:05:00,
2013-07-19 03:10:00,77.2,73.4,29.80,SSW,201,2.0,2.0,88,0.00,,CLR,0.00,VWS V14.01,2013-07-19 08:10:00,
2013-07-19 03:15:00,77.2,73.4,29.80,SW,227,0.0,2.0,88,0.00,,CLR,0.00,VWS V14.01,2013-07-19 08:15:00,
2013-07-19 03:20:00,77.1,73.3,29.80,SSW,212,2.0,4.0,88,0.00,,CLR,0.00,VWS V14.01,2013-07-19 08:20:00,
2013-07-19 03:25:00,77.1,73.3,29.80,SW,217,3.0,3.0,88,0.00,,CLR,0.00,VWS V14.01,2013-07-19 08:25:00,
2013-07-19 03:30:00,77.1,73.3,29.80,SSW,203,0.0,0.0,88,0.00,,CLR,0.00,VWS V14.01,2013-07-19 08:30:00,
2013-07-19 03:35:00,76.9,73.1,29.79,SSW,213,5.0,5.0,88,0.00,,CLR,0.00,VWS V14.01,2013-07-19 08:35:00,
2013-07-19 03:40:00,76.9,73.1,29.79,SSW,208,4.0,6.0,88,0.00,,CLR,0.00,VWS V14.01,2013-07-19 08:40:00,
2013-07-19 03:45:00,76.8,73.3,29.79,SSW,205,4.0,4.0,89,0.00,,CLR,0.00,VWS V14.01,2013-07-19 08:45:00,
2013-07-19 03:50:00,76.7,73.2,29.79,SSW,206,4.0,7.0,89,0.00,,CLR,0.00,VWS V14.01,2013-07-19 08:50:00,
2013-07-19 03:55:00,76.6,73.1,29.78,SSW,200,4.0,4.0,89,0.00,,CLR,0.00,VWS V14.01,2013-07-19 08:55:00,
2013-07-19 04:00:00,76.6,73.1,29.79,SSW,212,2.0,3.0,89,0.00,,CLR,0.00,VWS V14.01,2013-07-19 09:00:00,
2013-07-19 04:05:00,76.7,73.2,29.78,SSW,209,4.0,6.0,89,0.00,,CLR,0.00,VWS V14.01,2013-07-19 09:05:00,
2013-07-19 04:10:00,76.6,73.1,29.78,SSW,206,4.0,6.0,89,0.00,,CLR,0.00,VWS V14.01,2013-07-19 09:10:00,
2013-07-19 04:15:00,76.4,72.9,29.78,SSW,208,1.0,6.0,89,0.00,,CLR,0.00,VWS V14.01,2013-07-19 09:15:00,
2013-07-19 04:20:00,76.2,73.1,29.78,SSW,208,3.0,6.0,90,0.00,,CLR,0.00,VWS V14.01,2013-07-19 09:20:00,
2013-07-19 04:25:00,76.0,72.9,29.78,SSW,207,3.0,6.0,90,0.00,,CLR,0.00,VWS V14.01,2013-07-19 09:25:00,
2013-07-19 04:30:00,76.0,72.9,29.78,SW,217,3.0,7.0,90,0.00,,CLR,0.00,VWS V14.01,2013-07-19 09:30:00,
2013-07-19 04:35:00,76.1,73.0,29.78,SSW,210,6.0,8.0,90,0.00,,CLR,0.00,VWS V14.01,2013-07-19 09:35:00,
2013-07-19 04:40:00,76.2,72.7,29.78,SW,219,4.0,8.0,89,0.00,,CLR,0.00,VWS V14.01,2013-07-19 09:40:00,
2013-07-19 04:45:00,76.2,72.7,29.78,SSW,213,5.0,6.0,89,0.00,,CLR,0.00,VWS V14.01,2013-07-19 09:45:00,
2013-07-19 04:50:00,76.1,73.0,29.78,SSW,211,5.0,6.0,90,0.00,,CLR,0.00,VWS V14.01,2013-07-19 09:50:00,
2013-07-19 04:55:00,76.0,72.9,29.78,SSW,210,3.0,8.0,90,0.00,,CLR,0.00,VWS V14.01,2013-07-19 09:55:00,
2013-07-19 05:00:00,76.0,72.9,29.78,SSW,208,5.0,7.0,90,0.00,,CLR,0.00,VWS V14.01,2013-07-19 10:00:00,
2013-07-19 05:05:00,76.0,72.9,29.78,SSW,212,7.0,8.0,90,0.00,,CLR,0.00,VWS V14.01,2013-07-19 10:05:00,
2013-07-19 05:10:00,76.1,72.6,29.78,SW,223,5.0,8.0,89,0.00,,CLR,0.00,VWS V14.01,2013-07-19 10:10:00,
2013-07-19 05:15:00,76.1,72.6,29.78,SSW,211,5.0,10.0,89,0.00,,CLR,0.00,VWS V14.01,2013-07-19 10:15:00,
2013-07-19 05:20:00,76.0,72.5,29.78,SSW,204,3.0,7.0,89,0.00,,CLR,0.00,VWS V14.01,2013-07-19 10:20:00,
2013-07-19 05:25:00,76.0,72.5,29.78,SW,217,6.0,9.0,89,0.00,,CLR,0.00,VWS V14.01,2013-07-19 10:25:00,
2013-07-19 05:30:00,76.0,72.5,29.78,SW,221,6.0,7.0,89,0.00,,CLR,0.00,VWS V14.01,2013-07-19 10:30:00,
2013-07-19 05:35:00,76.1,72.6,29.78,SSW,207,5.0,8.0,89,0.00,,CLR,0.00,VWS V14.01,2013-07-19 10:35:00,
2013-07-19 05:40:00,76.0,72.5,29.78,SW,218,4.0,8.0,89,0.00,,CLR,0.00,VWS V14.01,2013-07-19 10:40:00,
2013-07-19 05:45:00,76.0,72.5,29.78,SW,219,4.0,8.0,89,0.00,,CLR,0.00,VWS V14.01,2013-07-19 10:45:00,
2013-07-19 05:50:00,75.9,72.4,29.78,SW,220,5.0,10.0,89,0.00,,CLR,0.00,VWS V14.01,2013-07-19 10:50:00,
2013-07-19 05:55:00,76.0,72.5,29.78,SSW,213,6.0,9.0,89,0.00,,CLR,0.00,VWS V14.01,2013-07-19 10:55:00,
2013-07-19 06:00:00,76.0,72.5,29.78,SSW,210,3.0,10.0,89,0.00,,CLR,0.00,VWS V14.01,2013-07-19 11:00:00,
2013-07-19 06:05:00,76.2,72.7,29.78,SSW,212,5.0,9.0,89,0.00,,CLR,0.00,VWS V14.01,2013-07-19 11:05:00,
2013-07-19 06:10:00,76.2,72.7,29.78,SSW,201,4.0,7.0,89,0.00,,CLR,0.00,VWS V14.01,2013-07-19 11:10:00,
2013-07-19 06:15:00,76.3,72.8,29.78,SSW,209,5.0,7.0,89,0.00,,CLR,0.00,VWS V14.01,2013-07-19 11:15:00,
2013-07-19 06:20:00,76.5,72.7,29.78,SSW,211,5.0,10.0,88,0.00,,CLR,0.00,VWS V14.01,2013-07-19 11:20:00,
2013-07-19 06:25:00,76.7,72.9,29.78,SSW,193,3.0,8.0,88,0.00,,CLR,0.00,VWS V14.01,2013-07-19 11:25:00,
2013-07-19 06:30:00,76.8,73.0,29.78,SSW,210,3.0,8.0,88,0.00,,CLR,0.00,VWS V14.01,2013-07-19 11:30:00,
2013-07-19 06:35:00,76.9,72.7,29.78,SW,216,4.0,10.0,87,0.00,,CLR,0.00,VWS V14.01,2013-07-19 11:35:00,
2013-07-19 06:40:00,77.1,72.9,29.78,SW,215,6.0,7.0,87,0.00,,CLR,0.00,VWS V14.01,2013-07-19 11:40:00,
2013-07-19 06:45:00,77.2,73.0,29.78,SSW,207,6.0,8.0,87,0.00,,CLR,0.00,VWS V14.01,2013-07-19 11:45:00,
2013-07-19 06:50:00,77.4,73.2,29.78,SW,216,5.0,9.0,87,0.00,,CLR,0.00,VWS V14.01,2013-07-19 11:50:00,
2013-07-19 06:55:00,77.6,73.4,29.78,SSW,207,5.0,8.0,87,0.00,,CLR,0.00,VWS V14.01,2013-07-19 11:55:00,
2013-07-19 07:00:00,77.7,73.2,29.78,SW,217,4.0,7.0,86,0.00,,CLR,0.00,VWS V14.01,2013-07-19 12:00:00,
2013-07-19 07:05:00,77.8,73.3,29.78,SW,223,6.0,9.0,86,0.00,,CLR,0.00,VWS V14.01,2013-07-19 12:05:00,
2013-07-19 07:10:00,78.0,73.5,29.78,SW,214,6.0,7.0,86,0.00,,CLR,0.00,VWS V14.01,2013-07-19 12:10:00,
2013-07-19 07:15:00,78.3,73.4,29.78,SW,221,5.0,8.0,85,0.00,,CLR,0.00,VWS V14.01,2013-07-19 12:15:00,
2013-07-19 07:20:00,78.6,73.7,29.78,SSW,206,6.0,9.0,85,0.00,,CLR,0.00,VWS V14.01,2013-07-19 12:20:00,
2013-07-19 07:24:00,78.8,73.6,29.79,SW,236,5.0,10.0,84,0.00,,CLR,0.00,VWS V14.01,2013-07-19 12:24:00,
2013-07-19 07:29:00,79.0,73.8,29.79,SW,223,5.0,13.0,84,0.00,,CLR,0.00,VWS V14.01,2013-07-19 12:29:00,
2013-07-19 07:34:00,79.3,73.7,29.79,South,185,6.0,8.0,83,0.00,,CLR,0.00,VWS V14.01,2013-07-19 12:34:00,
2013-07-19 07:39:00,79.7,74.1,29.79,WSW,238,9.0,10.0,83,0.00,,CLR,0.00,VWS V14.01,2013-07-19 12:39:00,
2013-07-19 07:44:00,79.7,73.7,29.79,SW,234,1.0,9.0,82,0.00,,CLR,0.00,VWS V14.01,2013-07-19 12:44:00,
2013-07-19 07:49:00,79.6,74.0,29.79,SSW,213,5.0,9.0,83,0.00,,CLR,0.00,VWS V14.01,2013-07-19 12:49:00,
2013-07-19 07:54:00,79.9,73.9,29.79,SW,233,7.0,8.0,82,0.00,,CLR,0.00,VWS V14.01,2013-07-19 12:54:00,
2013-07-19 07:59:00,80.4,74.0,29.79,SW,219,4.0,7.0,81,0.00,,CLR,0.00,VWS V14.01,2013-07-19 12:59:00,
2013-07-19 08:04:00,80.5,73.8,29.79,SW,215,4.0,8.0,80,0.00,,CLR,0.00,VWS V14.01,2013-07-19 13:04:00,
2013-07-19 08:09:00,80.7,74.0,29.79,SW,215,4.0,9.0,80,0.00,,CLR,0.00,VWS V14.01,2013-07-19 13:09:00,
2013-07-19 08:14:00,81.3,74.2,29.79,WSW,249,5.0,8.0,79,0.00,,CLR,0.00,VWS V14.01,2013-07-19 13:14:00,
2013-07-19 08:19:00,81.7,74.2,29.79,SW,231,6.0,10.0,78,0.00,,CLR,0.00,VWS V14.01,2013-07-19 13:19:00,
2013-07-19 08:24:00,82.0,74.5,29.79,WSW,253,5.0,9.0,78,0.00,,SCT090,0.00,VWS V14.01,2013-07-19 13:24:00,
2013-07-19 08:26:00,82.1,74.2,29.79,SW,236,9.0,9.0,77,0.00,,SCT090,0.00,VWS V14.01,2013-07-19 13:26:00,
2013-07-19 08:31:00,82.3,74.4,29.79,SSW,207,6.0,7.0,77,0.00,,SCT090,0.00,VWS V14.01,2013-07-19 13:31:00,
2013-07-19 08:36:00,82.9,74.6,29.79,SW,229,5.0,8.0,76,0.00,,SCT090,0.00,VWS V14.01,2013-07-19 13:36:00,
2013-07-19 08:41:00,83.2,74.5,29.79,SSW,209,6.0,7.0,75,0.00,,CLR,0.00,VWS V14.01,2013-07-19 13:41:00,
2013-07-19 08:46:00,83.5,74.3,29.79,SW,232,2.0,5.0,74,0.00,,CLR,0.00,VWS V14.01,2013-07-19 13:46:00,
2013-07-19 08:51:00,83.8,74.6,29.79,SSW,206,7.0,14.0,74,0.00,,CLR,0.00,VWS V14.01,2013-07-19 13:51:00,
2013-07-19 08:56:00,84.1,74.5,29.79,SW,232,9.0,11.0,73,0.00,,CLR,0.00,VWS V14.01,2013-07-19 13:56:00,
2013-07-19 09:01:00,84.1,74.1,29.79,WSW,258,5.0,11.0,72,0.00,,CLR,0.00,VWS V14.01,2013-07-19 14:01:00,
2013-07-19 09:06:00,84.5,74.9,29.79,SW,229,5.0,5.0,73,0.00,,CLR,0.00,VWS V14.01,2013-07-19 14:06:00,
2013-07-19 09:10:00,84.7,73.8,29.79,WSW,253,5.0,7.0,70,0.00,,CLR,0.00,VWS V14.01,2013-07-19 14:10:00,
2013-07-19 09:15:00,84.9,74.0,29.80,WSW,258,5.0,10.0,70,0.00,,CLR,0.00,VWS V14.01,2013-07-19 14:15:00,
2013-07-19 09:20:00,85.2,74.7,29.80,WSW,240,6.0,8.0,71,0.00,,CLR,0.00,VWS V14.01,2013-07-19 14:20:00,
2013-07-19 09:25:00,85.1,74.2,29.80,SW,233,8.0,9.0,70,0.00,,CLR,0.00,VWS V14.01,2013-07-19 14:25:00,
2013-07-19 09:30:00,84.9,74.4,29.79,West,264,4.0,5.0,71,0.00,,CLR,0.00,VWS V14.01,2013-07-19 14:30:00,
2013-07-19 09:35:00,85.4,74.5,29.79,SW,235,8.0,11.0,70,0.00,,CLR,0.00,VWS V14.01,2013-07-19 14:35:00,
2013-07-19 09:40:00,85.7,74.8,29.79,SSW,202,5.0,7.0,70,0.00,,CLR,0.00,VWS V14.01,2013-07-19 14:40:00,
2013-07-19 09:45:00,85.9,74.1,29.79,WSW,248,9.0,10.0,68,0.00,,CLR,0.00,VWS V14.01,2013-07-19 14:45:00,
2013-07-19 09:50:00,86.3,74.9,29.79,South,184,5.0,7.0,69,0.00,,CLR,0.00,VWS V14.01,2013-07-19 14:50:00,
2013-07-19 09:55:00,86.2,75.3,29.79,SW,223,7.0,7.0,70,0.00,,CLR,0.00,VWS V14.01,2013-07-19 14:55:00,
2013-07-19 10:00:00,85.7,74.4,29.79,WSW,256,8.0,8.0,69,0.00,,CLR,0.00,VWS V14.01,2013-07-19 15:00:00,
2013-07-19 10:05:00,85.6,73.8,29.79,WSW,250,6.0,9.0,68,0.00,,CLR,0.00,VWS V14.01,2013-07-19 15:05:00,
2013-07-19 10:10:00,86.0,74.2,29.78,SW,221,3.0,5.0,68,0.00,,CLR,0.00,VWS V14.01,2013-07-19 15:10:00,
2013-07-19 10:15:00,86.4,74.6,29.79,SW,223,9.0,13.0,68,0.00,,CLR,0.00,VWS V14.01,2013-07-19 15:15:00,
2013-07-19 10:20:00,86.8,75.0,29.78,WSW,238,5.0,5.0,68,0.00,,CLR,0.00,VWS V14.01,2013-07-19 15:20:00,
2013-07-19 10:25:00,87.4,75.6,29.78,WSW,238,3.0,6.0,68,0.00,,CLR,0.00,VWS V14.01,2013-07-19 15:25:00,
2013-07-19 10:30:00,87.5,74.8,29.78,SW,223,5.0,6.0,66,0.00,,CLR,0.00,VWS V14.01,2013-07-19 15:30:00,
2013-07-19 10:35:00,88.1,74.9,29.78,SSW,207,5.0,6.0,65,0.00,,CLR,0.00,VWS V14.01,2013-07-19 15:35:00,
2013-07-19 10:40:00,87.9,73.7,29.78,SW,224,5.0,9.0,63,0.00,,CLR,0.00,VWS V14.01,2013-07-19 15:40:00,
2013-07-19 10:45:00,87.9,74.2,29.78,West,279,2.0,5.0,64,0.00,,CLR,0.00,VWS V14.01,2013-07-19 15:45:00,
2013-07-19 10:50:00,88.6,75.3,29.78,WSW,240,9.0,11.0,65,0.00,,CLR,0.00,VWS V14.01,2013-07-19 15:50:00,
2013-07-19 10:55:00,88.3,73.2,29.78,West,269,8.0,8.0,61,0.00,,CLR,0.00,VWS V14.01,2013-07-19 15:55:00,
2013-07-19 11:00:00,88.0,73.4,29.77,WSW,247,4.0,13.0,62,0.00,,CLR,0.00,VWS V14.01,2013-07-19 16:00:00,
2013-07-19 11:05:00,88.6,73.9,29.77,SW,225,5.0,9.0,62,0.00,,CLR,0.00,VWS V14.01,2013-07-19 16:05:00,
2013-07-19 11:10:00,88.8,73.1,29.77,SSW,206,6.0,7.0,60,0.00,,CLR,0.00,VWS V14.01,2013-07-19 16:10:00,
2013-07-19 11:15:00,88.9,74.2,29.77,SW,221,7.0,7.0,62,0.00,,CLR,0.00,VWS V14.01,2013-07-19 16:15:00,
2013-07-19 11:20:00,88.4,73.7,29.77,South,187,7.0,9.0,62,0.00,,CLR,0.00,VWS V14.01,2013-07-19 16:20:00,
2013-07-19 11:25:00,88.1,73.9,29.76,SSW,207,13.0,13.0,63,0.00,,CLR,0.00,VWS V14.01,2013-07-19 16:25:00,
2013-07-19 11:30:00,88.4,74.2,29.76,West,262,6.0,8.0,63,0.00,,CLR,0.00,VWS V14.01,2013-07-19 16:30:00,
2013-07-19 11:35:00,89.1,74.9,29.76,SW,218,9.0,9.0,63,0.00,,CLR,0.00,VWS V14.01,2013-07-19 16:35:00,
2013-07-19 11:40:00,89.0,73.8,29.76,SW,221,6.0,6.0,61,0.00,,CLR,0.00,VWS V14.01,2013-07-19 16:40:00,
2013-07-19 11:45:00,89.7,74.0,29.76,WSW,238,7.0,11.0,60,0.00,,CLR,0.00,VWS V14.01,2013-07-19 16:45:00,
2013-07-19 11:50:00,89.3,74.6,29.75,SSW,200,6.0,8.0,62,0.00,,CLR,0.00,VWS V14.01,2013-07-19 16:50:00,
2013-07-19 11:55:00,89.5,73.8,29.75,SSW,194,9.0,10.0,60,0.00,,CLR,0.00,VWS V14.01,2013-07-19 16:55:00,
2013-07-19 12:00:00,89.8,73.6,29.75,WSW,239,5.0,9.0,59,0.00,,CLR,0.00,VWS V14.01,2013-07-19 17:00:00,
2013-07-19 12:05:00,90.4,74.1,29.75,SW,219,10.0,11.0,59,0.00,,CLR,0.00,VWS V14.01,2013-07-19 17:05:00,
2013-07-19 12:10:00,90.3,73.5,29.75,WSW,248,11.0,11.0,58,0.00,,CLR,0.00,VWS V14.01,2013-07-19 17:10:00,
2013-07-19 12:15:00,90.5,73.7,29.74,SW,235,5.0,10.0,58,0.00,,CLR,0.00,VWS V14.01,2013-07-19 17:15:00,
2013-07-19 12:20:00,90.5,73.2,29.74,SSW,207,11.0,11.0,57,0.00,,CLR,0.00,VWS V14.01,2013-07-19 17:20:00,
2013-07-19 12:25:00,90.7,74.4,29.74,SSW,209,12.0,12.0,59,0.00,,CLR,0.00,VWS V14.01,2013-07-19 17:25:00,
2013-07-19 12:30:00,91.3,74.5,29.74,SSW,202,3.0,6.0,58,0.00,,CLR,0.00,VWS V14.01,2013-07-19 17:30:00,
2013-07-19 12:35:00,91.5,74.7,29.74,WSW,253,8.0,8.0,58,0.00,,CLR,0.00,VWS V14.01,2013-07-19 17:35:00,
2013-07-19 12:40:00,91.3,75.0,29.73,SSW,212,10.0,10.0,59,0.00,,CLR,0.00,VWS V14.01,2013-07-19 17:40:00,
2013-07-19 12:45:00,91.1,74.3,29.73,SW,217,7.0,7.0,58,0.00,,CLR,0.00,VWS V14.01,2013-07-19 17:45:00,
2013-07-19 12:50:00,91.3,73.9,29.73,SW,228,9.0,9.0,57,0.00,,CLR,0.00,VWS V14.01,2013-07-19 17:50:00,
2013-07-19 12:55:00,91.6,75.2,29.73,SSW,196,5.0,5.0,59,0.00,,CLR,0.00,VWS V14.01,2013-07-19 17:55:00,
2013-07-19 13:00:00,91.6,74.2,29.73,SW,235,11.0,11.0,57,0.00,,CLR,0.00,VWS V14.01,2013-07-19 18:00:00,
2013-07-19 13:05:00,91.7,74.8,29.73,SSW,207,6.0,14.0,58,0.00,,CLR,0.00,VWS V14.01,2013-07-19 18:05:00,
2013-07-19 13:10:00,91.7,74.8,29.73,SSW,202,7.0,7.0,58,0.00,,CLR,0.00,VWS V14.01,2013-07-19 18:10:00,
2013-07-19 13:15:00,91.9,74.0,29.73,West,259,7.0,9.0,56,0.00,,CLR,0.00,VWS V14.01,2013-07-19 18:15:00,
2013-07-19 13:20:00,92.1,74.7,29.73,SSW,193,9.0,12.0,57,0.00,,CLR,0.00,VWS V14.01,2013-07-19 18:20:00,
2013-07-19 13:25:00,92.1,74.2,29.72,SSW,205,9.0,15.0,56,0.00,,CLR,0.00,VWS V14.01,2013-07-19 18:25:00,
2013-07-19 13:30:00,92.0,73.0,29.72,SW,234,6.0,19.0,54,0.00,,CLR,0.00,VWS V14.01,2013-07-19 18:30:00,
2013-07-19 13:35:00,92.2,73.2,29.72,SSW,209,4.0,14.0,54,0.00,,CLR,0.00,VWS V14.01,2013-07-19 18:35:00,
2013-07-19 13:40:00,92.1,72.5,29.72,SW,215,11.0,14.0,53,0.00,,CLR,0.00,VWS V14.01,2013-07-19 18:40:00,
2013-07-19 13:45:00,92.3,74.3,29.72,SSW,212,7.0,15.0,56,0.00,,CLR,0.00,VWS V14.01,2013-07-19 18:45:00,
2013-07-19 13:50:00,93.2,75.7,29.72,West,263,6.0,14.0,57,0.00,,CLR,0.00,VWS V14.01,2013-07-19 18:50:00,
2013-07-19 13:55:00,91.8,72.8,29.72,SSW,211,7.0,18.0,54,0.00,,CLR,0.00,VWS V14.01,2013-07-19 18:55:00,
2013-07-19 14:00:00,91.8,73.3,29.72,SW,229,11.0,14.0,55,0.00,,CLR,0.00,VWS V14.01,2013-07-19 19:00:00,
2013-07-19 14:05:00,92.4,74.4,29.72,SSW,213,5.0,11.0,56,0.00,,CLR,0.00,VWS V14.01,2013-07-19 19:05:00,
2013-07-19 14:10:00,92.0,74.6,29.72,WSW,246,5.0,10.0,57,0.00,,CLR,0.00,VWS V14.01,2013-07-19 19:10:00,
2013-07-19 14:15:00,92.6,74.1,29.71,SSW,211,5.0,13.0,55,0.00,,CLR,0.00,VWS V14.01,2013-07-19 19:15:00,
2013-07-19 14:20:00,92.9,74.9,29.71,SSW,213,8.0,15.0,56,0.00,,CLR,0.00,VWS V14.01,2013-07-19 19:20:00,
2013-07-19 14:25:00,93.2,74.6,29.71,SW,232,5.0,14.0,55,0.00,,CLR,0.00,VWS V14.01,2013-07-19 19:25:00,
2013-07-19 14:30:00,93.3,72.5,29.71,SW,229,13.0,16.0,51,0.00,,CLR,0.00,VWS V14.01,2013-07-19 19:30:00,
2013-07-19 14:35:00,92.9,73.3,29.70,SW,218,6.0,16.0,53,0.00,,CLR,0.00,VWS V14.01,2013-07-19 19:35:00,
2013-07-19 14:40:00,92.6,72.4,29.70,SSW,205,7.0,15.0,52,0.00,,CLR,0.00,VWS V14.01,2013-07-19 19:40:00,
2013-07-19 14:45:00,92.4,71.7,29.70,SW,223,4.0,16.0,51,0.00,,CLR,0.00,VWS V14.01,2013-07-19 19:45:00,
2013-07-19 14:50:00,91.9,72.9,29.70,SSW,213,8.0,13.0,54,0.00,,CLR,0.00,VWS V14.01,2013-07-19 19:50:00,
2013-07-19 14:55:00,91.5,74.1,29.70,SW,226,2.0,10.0,57,0.00,,CLR,0.00,VWS V14.01,2013-07-19 19:55:00,
2013-07-19 15:00:00,91.1,73.2,29.70,SW,217,11.0,13.0,56,0.00,,CLR,0.00,VWS V14.01,2013-07-19 20:00:00,
2013-07-19 15:05:00,91.0,73.7,29.70,SSW,204,7.0,11.0,57,0.00,,CLR,0.00,VWS V14.01,2013-07-19 20:05:00,
2013-07-19 15:10:00,91.2,73.8,29.70,WSW,240,7.0,10.0,57,0.00,,CLR,0.00,VWS V14.01,2013-07-19 20:10:00,
2013-07-19 15:15:00,91.7,74.8,29.70,SW,229,4.0,9.0,58,0.00,,CLR,0.00,VWS V14.01,2013-07-19 20:15:00,
2013-07-19 15:20:00,91.7,74.3,29.70,WSW,245,4.0,14.0,57,0.00,,CLR,0.00,VWS V14.01,2013-07-19 20:20:00,
2013-07-19 15:25:00,91.4,74.0,29.70,SW,217,4.0,13.0,57,0.00,,CLR,0.00,VWS V14.01,2013-07-19 20:25:00,
2013-07-19 15:30:00,91.0,73.7,29.70,SW,229,3.0,10.0,57,0.00,,CLR,0.00,VWS V14.01,2013-07-19 20:30:00,
2013-07-19 15:35:00,90.7,73.9,29.70,West,263,5.0,9.0,58,0.00,,CLR,0.00,VWS V14.01,2013-07-19 20:35:00,
2013-07-19 15:40:00,91.6,74.7,29.70,SW,216,4.0,8.0,58,0.00,,CLR,0.00,VWS V14.01,2013-07-19 20:40:00,
2013-07-19 15:45:00,92.7,74.7,29.70,WSW,238,8.0,15.0,56,0.00,,CLR,0.00,VWS V14.01,2013-07-19 20:45:00,
2013-07-19 15:50:00,92.0,72.4,29.70,SSW,213,10.0,16.0,53,0.00,,CLR,0.00,VWS V14.01,2013-07-19 20:50:00,
2013-07-19 15:55:00,92.3,72.7,29.69,SW,235,14.0,14.0,53,0.00,,CLR,0.00,VWS V14.01,2013-07-19 20:55:00,
2013-07-19 16:00:00,92.5,72.9,29.69,WSW,250,10.0,12.0,53,0.00,,CLR,0.00,VWS V14.01,2013-07-19 21:00:00,
2013-07-19 16:05:00,93.2,73.0,29.69,WSW,242,5.0,13.0,52,0.00,,CLR,0.00,VWS V14.01,2013-07-19 21:05:00,
2013-07-19 16:10:00,93.3,74.2,29.69,SW,217,4.0,10.0,54,0.00,,CLR,0.00,VWS V14.01,2013-07-19 21:10:00,
2013-07-19 16:15:00,93.2,74.1,29.69,SW,235,2.0,9.0,54,0.00,,CLR,0.00,VWS V14.01,2013-07-19 21:15:00,
2013-07-19 16:19:00,92.6,74.6,29.69,WSW,237,6.0,11.0,56,0.00,,CLR,0.00,VWS V14.01,2013-07-19 21:19:00,
2013-07-19 16:24:00,92.8,73.7,29.69,SSW,209,8.0,11.0,54,0.00,,CLR,0.00,VWS V14.01,2013-07-19 21:24:00,
2013-07-19 16:29:00,93.1,75.6,29.69,SW,232,7.0,12.0,57,0.00,,CLR,0.00,VWS V14.01,2013-07-19 21:29:00,
2013-07-19 16:34:00,92.4,73.3,29.69,West,260,8.0,14.0,54,0.00,,CLR,0.00,VWS V14.01,2013-07-19 21:34:00,
2013-07-19 16:39:00,91.9,74.5,29.69,SSW,203,4.0,13.0,57,0.00,,CLR,0.00,VWS V14.01,2013-07-19 21:39:00,
2013-07-19 16:44:00,92.4,75.0,29.69,SW,220,4.0,11.0,57,0.00,,CLR,0.00,VWS V14.01,2013-07-19 21:44:00,
2013-07-19 16:49:00,92.6,74.6,29.68,SSW,205,5.0,10.0,56,0.00,,CLR,0.00,VWS V14.01,2013-07-19 21:49:00,
2013-07-19 16:54:00,92.6,74.6,29.68,WSW,238,5.0,12.0,56,0.00,,CLR,0.00,VWS V14.01,2013-07-19 21:54:00,
2013-07-19 16:59:00,92.6,73.5,29.68,WSW,252,10.0,12.0,54,0.00,,CLR,0.00,VWS V14.01,2013-07-19 21:59:00,
2013-07-19 17:04:00,92.7,73.6,29.68,SW,218,7.0,12.0,54,0.00,,CLR,0.00,VWS V14.01,2013-07-19 22:04:00,
2013-07-19 17:09:00,92.7,73.6,29.68,West,269,3.0,12.0,54,0.00,,CLR,0.00,VWS V14.01,2013-07-19 22:09:00,
2013-07-19 17:14:00,92.5,73.4,29.68,SSW,213,5.0,13.0,54,0.00,,CLR,0.00,VWS V14.01,2013-07-19 22:14:00,
2013-07-19 17:19:00,92.4,73.3,29.68,WSW,250,8.0,15.0,54,0.00,,CLR,0.00,VWS V14.01,2013-07-19 22:19:00,
2013-07-19 17:24:00,92.3,73.3,29.68,SW,220,5.0,9.0,54,0.00,,CLR,0.00,VWS V14.01,2013-07-19 22:24:00,
2013-07-19 17:29:00,92.3,73.3,29.67,WSW,242,4.0,9.0,54,0.00,,CLR,0.00,VWS V14.01,2013-07-19 22:29:00,
2013-07-19 17:34:00,92.2,73.7,29.67,WSW,252,6.0,11.0,55,0.00,,CLR,0.00,VWS V14.01,2013-07-19 22:34:00,
2013-07-19 17:39:00,92.1,74.2,29.67,WSW,242,5.0,10.0,56,0.00,,CLR,0.00,VWS V14.01,2013-07-19 22:39:00,
2013-07-19 17:44:00,91.9,73.4,29.67,WSW,248,4.0,10.0,55,0.00,,CLR,0.00,VWS V14.01,2013-07-19 22:44:00,
2013-07-19 17:49:00,92.0,74.1,29.67,SW,216,3.0,10.0,56,0.00,,CLR,0.00,VWS V14.01,2013-07-19 22:49:00,
2013-07-19 17:54:00,91.9,72.9,29.67,WNW,292,7.0,13.0,54,0.00,,FEW060,0.00,VWS V14.01,2013-07-19 22:54:00,
2013-07-19 17:59:00,91.6,73.7,29.67,SW,234,6.0,10.0,56,0.00,,FEW060,0.00,VWS V14.01,2013-07-19 22:59:00,
2013-07-19 18:04:00,91.5,73.1,29.67,SW,231,3.0,11.0,55,0.00,,CLR,0.00,VWS V14.01,2013-07-19 23:04:00,
2013-07-19 18:09:00,91.3,73.9,29.67,SW,221,3.0,9.0,57,0.00,,CLR,0.00,VWS V14.01,2013-07-19 23:09:00,
2013-07-19 18:14:00,91.1,73.8,29.66,SSW,204,4.0,7.0,57,0.00,,CLR,0.00,VWS V14.01,2013-07-19 23:14:00,
2013-07-19 18:19:00,90.9,73.6,29.66,SW,219,6.0,9.0,57,0.00,,CLR,0.00,VWS V14.01,2013-07-19 23:19:00,
2013-07-19 18:24:00,90.9,73.0,29.66,WSW,240,6.0,12.0,56,0.00,,FEW070,0.00,VWS V14.01,2013-07-19 23:24:00,
2013-07-19 18:29:00,90.7,73.9,29.66,South,188,5.0,10.0,58,0.00,,FEW070,0.00,VWS V14.01,2013-07-19 23:29:00,
2013-07-19 18:34:00,90.4,73.6,29.66,SSW,213,7.0,13.0,58,0.00,,FEW070,0.00,VWS V14.01,2013-07-19 23:34:00,
2013-07-19 18:39:00,90.1,73.3,29.66,SW,223,6.0,9.0,58,0.00,,FEW070,0.00,VWS V14.01,2013-07-19 23:39:00,
2013-07-19 18:44:00,90.2,73.4,29.66,SSW,208,4.0,7.0,58,0.00,,CLR,0.00,VWS V14.01,2013-07-19 23:44:00,
2013-07-19 18:49:00,89.7,73.0,29.66,SW,232,1.0,7.0,58,0.00,,CLR,0.00,VWS V14.01,2013-07-19 23:49:00,
2013-07-19 18:54:00,89.2,72.5,29.66,WSW,244,1.0,8.0,58,0.00,,CLR,0.00,VWS V14.01,2013-07-19 23:54:00,
2013-07-19 18:59:00,88.6,72.4,29.66,SW,226,4.0,6.0,59,0.00,,CLR,0.00,VWS V14.01,2013-07-19 23:59:00,
2013-07-19 19:04:00,88.6,72.4,29.66,WSW,246,6.0,8.0,59,0.00,,CLR,0.00,VWS V14.01,2013-07-20 00:04:00,
2013-07-19 19:09:00,88.7,72.5,29.66,WSW,242,2.0,7.0,59,0.00,,CLR,0.00,VWS V14.01,2013-07-20 00:09:00,
2013-07-19 19:14:00,88.6,72.4,29.66,SW,215,1.0,6.0,59,0.00,,CLR,0.00,VWS V14.01,2013-07-20 00:14:00,
2013-07-19 19:19:00,88.4,72.8,29.66,SSW,200,1.0,5.0,60,0.00,,CLR,0.00,VWS V14.01,2013-07-20 00:19:00,
2013-07-19 19:24:00,88.1,73.0,29.67,SSW,200,1.0,3.0,61,0.00,,SCT070,0.00,VWS V14.01,2013-07-20 00:24:00,
2013-07-19 19:29:00,87.9,73.3,29.67,SSW,200,0.0,5.0,62,0.00,,SCT070,0.00,VWS V14.01,2013-07-20 00:29:00,
2013-07-19 19:34:00,87.7,73.6,29.68,WNW,292,7.0,7.0,63,0.00,,SCT070,0.00,VWS V14.01,2013-07-20 00:34:00,
2013-07-19 19:39:00,85.3,75.7,29.68,WSW,242,6.0,13.0,73,0.00,,SCT070,0.00,VWS V14.01,2013-07-20 00:39:00,
2013-07-19 19:44:00,80.9,74.9,29.68,WSW,240,3.0,6.0,82,0.02,,BKN070,0.02,VWS V14.01,2013-07-20 00:44:00,
2013-07-19 19:49:00,78.8,74.6,29.67,WSW,238,1.0,5.0,87,0.02,,BKN070,0.02,VWS V14.01,2013-07-20 00:49:00,
2013-07-19 19:54:00,78.0,74.8,29.67,SW,235,0.0,0.0,90,0.03,,BKN070,0.03,VWS V14.01,2013-07-20 00:54:00,
2013-07-19 19:59:00,77.5,74.7,29.68,SW,235,0.0,4.0,91,0.03,,BKN070,0.03,VWS V14.01,2013-07-20 00:59:00,
2013-07-19 20:04:00,77.0,74.2,29.68,SW,235,0.0,1.0,91,0.03,,BKN070,0.03,VWS V14.01,2013-07-20 01:04:00,
2013-07-19 20:09:00,76.7,74.2,29.68,SW,235,0.0,3.0,92,0.03,,BKN070,0.03,VWS V14.01,2013-07-20 01:09:00,
2013-07-19 20:14:00,76.6,73.4,29.67,SW,235,0.0,0.0,90,0.03,,BKN070,0.03,VWS V14.01,2013-07-20 01:14:00,
2013-07-19 20:19:00,76.6,73.8,29.68,SW,235,0.0,1.0,91,0.03,,BKN070,0.03,VWS V14.01,2013-07-20 01:19:00,
2013-07-19 20:24:00,76.4,73.9,29.67,SW,235,0.0,0.0,92,0.03,,BKN070,0.03,VWS V14.01,2013-07-20 01:24:00,
2013-07-19 20:29:00,76.5,74.0,29.68,SW,235,0.0,0.0,92,0.03,,BKN070,0.03,VWS V14.01,2013-07-20 01:29:00,
2013-07-19 20:34:00,76.4,73.9,29.68,SW,235,0.0,0.0,92,0.03,,BKN070,0.03,VWS V14.01,2013-07-20 01:34:00,
2013-07-19 20:39:00,76.4,73.9,29.72,SW,236,4.0,6.0,92,0.03,,BKN070,0.03,VWS V14.01,2013-07-20 01:39:00,
2013-07-19 20:44:00,75.6,71.8,29.73,SW,217,7.0,19.0,88,0.08,,BKN060,0.09,VWS V14.01,2013-07-20 01:44:00,
2013-07-19 20:49:00,73.0,69.2,29.71,SW,219,19.0,32.0,88,0.25,,BKN060,0.27,VWS V14.01,2013-07-20 01:49:00,
2013-07-19 20:54:00,71.2,68.1,29.72,WSW,241,7.0,21.0,90,0.33,,BKN060,0.35,VWS V14.01,2013-07-20 01:54:00,
2013-07-19 20:59:00,70.7,68.3,29.70,SW,220,5.0,15.0,92,0.33,,BKN060,0.36,VWS V14.01,2013-07-20 01:59:00,
2013-07-19 21:04:00,70.2,67.8,29.70,SSW,211,1.0,8.0,92,0.33,,,0.36,VWS V14.01,2013-07-20 02:04:00,
2013-07-19 21:09:00,70.1,67.7,29.70,SSW,213,0.0,6.0,92,0.33,,,0.36,VWS V14.01,2013-07-20 02:09:00,
2013-07-19 21:14:00,70.1,68.0,29.70,SSW,213,0.0,0.0,93,0.33,,,0.36,VWS V14.01,2013-07-20 02:14:00,
2013-07-19 21:19:00,69.8,68.3,29.70,SSW,213,0.0,0.0,95,0.33,,,0.36,VWS V14.01,2013-07-20 02:19:00,
2013-07-19 21:24:00,69.7,68.2,29.70,SSW,213,0.0,2.0,95,0.33,,,0.36,VWS V14.01,2013-07-20 02:24:00,
2013-07-19 21:29:00,69.7,68.5,29.71,SSW,213,0.0,0.0,96,0.33,,,0.36,VWS V14.01,2013-07-20 02:29:00,
2013-07-19 21:34:00,69.7,68.5,29.70,SSW,213,0.0,0.0,96,0.33,,,0.36,VWS V14.01,2013-07-20 02:34:00,
2013-07-19 21:39:00,69.8,68.9,29.71,SSW,213,0.0,0.0,97,0.33,,,0.36,VWS V14.01,2013-07-20 02:39:00,
2013-07-19 21:46:00,69.9,69.0,29.71,SSW,213,0.0,0.0,97,0.33,,,0.36,VWS V14.01,2013-07-20 02:46:00,
2013-07-19 21:50:00,69.9,69.0,29.71,SSW,213,0.0,0.0,97,0.33,,FEW075,0.36,VWS V14.01,2013-07-20 02:50:00,
2013-07-19 21:51:00,69.9,69.0,29.71,SSW,213,0.0,0.0,97,0.05,,BKN110,0.36,VWS V14.01,2013-07-20 02:51:00,
2013-07-19 21:55:00,69.9,68.7,29.71,SSW,213,0.0,0.0,96,0.05,,FEW075,0.36,VWS V14.01,2013-07-20 02:55:00,
2013-07-19 21:56:00,69.9,68.7,29.72,SSW,213,0.0,0.0,96,0.01,,BKN110,0.36,VWS V14.01,2013-07-20 02:56:00,
2013-07-19 22:00:00,70.2,69.3,29.72,SSW,213,0.0,0.0,97,0.01,,FEW075,0.36,VWS V14.01,2013-07-20 03:00:00,
2013-07-19 22:01:00,70.3,69.4,29.72,SSW,213,0.0,0.0,97,0.00,,BKN100,0.36,VWS V14.01,2013-07-20 03:01:00,
2013-07-19 22:05:00,70.3,69.4,29.72,SSW,213,0.0,0.0,97,0.00,,FEW075,0.36,VWS V14.01,2013-07-20 03:05:00,
2013-07-19 22:06:00,70.4,69.5,29.72,SSW,213,0.0,0.0,97,0.00,,BKN100,0.36,VWS V14.01,2013-07-20 03:06:00,
2013-07-19 22:10:00,70.6,69.7,29.72,SSW,213,0.0,0.0,97,0.00,,FEW075,0.36,VWS V14.01,2013-07-20 03:10:00,
2013-07-19 22:11:00,70.6,69.7,29.72,SSW,213,0.0,0.0,97,0.00,,BKN100,0.36,VWS V14.01,2013-07-20 03:11:00,
2013-07-19 22:15:00,70.6,69.7,29.72,SSW,213,0.0,0.0,97,0.00,,FEW075,0.36,VWS V14.01,2013-07-20 03:15:00,
2013-07-19 22:16:00,70.7,69.8,29.72,SSW,213,0.0,0.0,97,0.00,,BKN100,0.36,VWS V14.01,2013-07-20 03:16:00,
2013-07-19 22:20:00,70.9,70.0,29.73,SSW,213,0.0,3.0,97,0.00,,FEW075,0.36,VWS V14.01,2013-07-20 03:20:00,
2013-07-19 22:21:00,71.0,70.1,29.73,SSW,213,0.0,0.0,97,0.00,,BKN100,0.36,VWS V14.01,2013-07-20 03:21:00,
2013-07-19 22:25:00,71.5,70.3,29.73,SSW,213,0.0,2.0,96,0.00,,FEW075,0.36,VWS V14.01,2013-07-20 03:25:00,
2013-07-19 22:26:00,71.6,70.1,29.73,SSW,213,2.0,3.0,95,0.00,,BKN100,0.36,VWS V14.01,2013-07-20 03:26:00,
2013-07-19 22:30:00,72.1,70.0,29.73,WSW,256,0.0,5.0,93,0.00,,FEW075,0.36,VWS V14.01,2013-07-20 03:30:00,
2013-07-19 22:31:00,72.2,70.1,29.73,WSW,256,1.0,1.0,93,0.00,,BKN100,0.36,VWS V14.01,2013-07-20 03:31:00,
2013-07-19 22:35:00,72.3,69.5,29.73,WSW,239,0.0,4.0,91,0.00,,FEW075,0.36,VWS V14.01,2013-07-20 03:35:00,
2013-07-19 22:36:00,72.4,69.6,29.73,WSW,239,0.0,0.0,91,0.00,,BKN100,0.36,VWS V14.01,2013-07-20 03:36:00,
2013-07-19 22:40:00,72.2,69.4,29.73,WSW,239,0.0,1.0,91,0.00,,FEW075,0.36,VWS V14.01,2013-07-20 03:40:00,
2013-07-19 22:41:00,72.2,69.4,29.72,WSW,239,0.0,0.0,91,0.00,,SCT060,0.36,VWS V14.01,2013-07-20 03:41:00,
2013-07-19 22:45:00,71.9,69.1,29.72,WSW,239,0.0,0.0,91,0.00,,FEW075,0.36,VWS V14.01,2013-07-20 03:45:00,
2013-07-19 22:46:00,71.7,69.3,29.72,WSW,239,0.0,0.0,92,0.00,,SCT060,0.36,VWS V14.01,2013-07-20 03:46:00,
2013-07-19 22:50:00,71.5,69.1,29.72,WSW,239,0.0,0.0,92,0.00,,FEW075,0.36,VWS V14.01,2013-07-20 03:50:00,
2013-07-19 22:51:00,71.5,69.1,29.72,WSW,239,0.0,0.0,92,0.00,,SCT060,0.36,VWS V14.01,2013-07-20 03:51:00,
2013-07-19 22:55:00,71.7,69.3,29.72,WSW,239,0.0,0.0,92,0.00,,FEW075,0.36,VWS V14.01,2013-07-20 03:55:00,
2013-07-19 22:56:00,71.6,69.2,29.72,WSW,239,0.0,0.0,92,0.00,,SCT060,0.36,VWS V14.01,2013-07-20 03:56:00,
2013-07-19 23:00:00,71.6,69.2,29.72,WSW,239,0.0,0.0,92,0.00,,FEW075,0.36,VWS V14.01,2013-07-20 04:00:00,
2013-07-19 23:01:00,71.6,69.5,29.72,WSW,239,0.0,0.0,93,0.00,,FEW075,0.36,VWS V14.01,2013-07-20 04:01:00,
2013-07-19 23:05:00,71.3,69.5,29.72,WSW,239,0.0,0.0,94,0.00,,FEW075,0.36,VWS V14.01,2013-07-20 04:05:00,
2013-07-19 23:06:00,71.2,69.4,29.73,WSW,239,0.0,0.0,94,0.00,,FEW075,0.36,VWS V14.01,2013-07-20 04:06:00,
2013-07-19 23:11:00,70.9,69.4,29.73,WSW,239,0.0,0.0,95,0.00,,FEW075,0.36,VWS V14.01,2013-07-20 04:11:00,
2013-07-19 23:16:00,70.8,69.3,29.72,WSW,239,0.0,0.0,95,0.00,,FEW075,0.36,VWS V14.01,2013-07-20 04:16:00,
2013-07-19 23:21:00,70.7,69.2,29.73,WSW,239,0.0,0.0,95,0.00,,FEW075,0.36,VWS V14.01,2013-07-20 04:21:00,
2013-07-19 23:26:00,70.6,69.1,29.73,WSW,239,0.0,0.0,95,0.00,,FEW075,0.36,VWS V14.01,2013-07-20 04:26:00,
2013-07-19 23:31:00,70.6,69.1,29.73,WSW,239,0.0,0.0,95,0.00,,FEW075,0.36,VWS V14.01,2013-07-20 04:31:00,
2013-07-19 23:36:00,70.5,69.3,29.73,WSW,239,0.0,0.0,96,0.00,,FEW075,0.36,VWS V14.01,2013-07-20 04:36:00,
2013-07-19 23:41:00,70.6,69.4,29.73,WSW,239,0.0,3.0,96,0.00,,BKN075,0.36,VWS V14.01,2013-07-20 04:41:00,
2013-07-19 23:46:00,70.8,69.3,29.73,WSW,239,0.0,0.0,95,0.00,,BKN075,0.36,VWS V14.01,2013-07-20 04:46:00,
2013-07-19 23:51:00,71.0,69.5,29.73,WSW,239,0.0,0.0,95,0.00,,BKN075,0.36,VWS V14.01,2013-07-20 04:51:00,
2013-07-19 23:56:00,71.0,69.5,29.73,WSW,239,0.0,0.0,95,0.00,,BKN075,0.36,VWS V14.01,2013-07-20 04:56:00,